Weather in Fashchivka

Ukraine / Luhansk Region     48°16′19″N   38°36′51″E
temp.,
°C
wind,
m/s
gust,
m/s
humid.,
%
clouds,
%
prec.,
mm/h
press.,
hPa
HPBL,
m
9 march, tue
tue923:00−1w4797100 1.1 1011529
02:00−2w3694100 1.5 1012268
05:00−4wnw489275 0.4 1012240
08:00−3wnw698348 0.4 1013761
11:00−1wnw687775 0.1 10151010
14:000wnw786674 0.3 10151388
17:00−3nw597294 0.2 1017753
20:00−4nnw487748 0.2 1020616
10 march, wed
wed1023:00−5nnw367576 0.0 1021645
02:00−6nnw467759 0.0 1023736
05:00−6n457643 0.0 1024700
08:00−6n456222 0.0 1026784
11:00−4n335011 0.0 10261017
14:00−3n224548 0.0 10251038
17:00−3nne2250100 0.0 1024832
20:00−4ne2458100 0.0 1025392
11 march, thu
thu1123:00−5e135893 0.0 1025190
02:00−5ene246090 0.0 1025160
05:00−6ene366619 0.0 1025237
08:00−5ene56549 0.0 1026654
11:00−4ene56490 0.0 10261063
14:00−3ene67511 0.0 10261161
17:00−6ene675644 0.0 10261030
20:00−8ene674625 0.0 1029830
12 march, fri
fri1223:00−9ene58480 0.0 1030698
02:00−10ene57530 0.0 1030561
05:00−11ene57550 0.0 1031506
08:00−10e57440 0.0 1032513
11:00−6ese56310 0.0 1031811
14:00−4ese45260 0.0 10311019
17:00−5se563280 0.0 1030885
20:00−6sse583673 0.0 1031824
13 march, sat
sat1323:00−6sse593632 0.0 1031732
02:00−7sse593862 0.0 1030577
05:00−7sse694557 0.0 1030442
08:00−6sse7104578 0.0 1030518
11:00−3sse7940100 0.0 1029702
14:00−1sse683861 0.0 1027746
17:00−2sse58470 0.0 1026631
20:00−3sse5105517 0.0 1026512